Time,TemperatureF,DewpointF,PressureIn,WindDirection,WindDirectionDegrees,WindSpeedMPH,WindSpeedGustMPH,Humidity,HourlyPrecipIn,Conditions,Clouds,dailyrainin,SoftwareType,DateUTC
2013-03-29 00:04:00,46.0,45.0,30.14,WSW,245,0.0,0.0,97,0.00,,,0.00,weatherlink.com 1.10,2013-03-29 07:04:00,
2013-03-29 00:19:00,45.9,45.0,30.14,WSW,245,0.0,0.0,98,0.00,,,0.00,weatherlink.com 1.10,2013-03-29 07:19:00,
2013-03-29 00:34:00,45.2,44.0,30.14,WSW,245,0.0,0.0,97,0.00,,,0.00,weatherlink.com 1.10,2013-03-29 07:34:00,
2013-03-29 00:49:00,45.0,45.0,30.14,WSW,253,0.0,0.0,98,0.00,,,0.00,weatherlink.com 1.10,2013-03-29 07:49:00,
2013-03-29 01:04:00,44.5,44.0,30.15,WSW,253,0.0,0.0,98,0.00,,,0.00,weatherlink.com 1.10,2013-03-29 08:04:00,
2013-03-29 01:19:00,44.7,44.0,30.15,WSW,253,0.0,1.0,98,0.00,,,0.00,weatherlink.com 1.10,2013-03-29 08:19:00,
2013-03-29 01:34:00,43.9,43.0,30.15,WSW,256,0.0,0.0,97,0.00,,,0.00,weatherlink.com 1.10,2013-03-29 08:34:00,
2013-03-29 01:49:00,43.8,43.0,30.15,WSW,248,0.0,1.0,98,0.00,,,0.00,weatherlink.com 1.10,2013-03-29 08:49:00,
2013-03-29 02:05:00,43.6,43.0,30.16,WSW,243,0.0,0.0,98,0.00,,,0.00,weatherlink.com 1.10,2013-03-29 09:05:00,
2013-03-29 02:20:00,43.6,43.0,30.16,WSW,243,0.0,0.0,98,0.00,,,0.00,weatherlink.com 1.10,2013-03-29 09:20:00,
2013-03-29 02:35:00,43.3,43.0,30.16,SSW,211,0.0,0.0,98,0.00,,,0.00,weatherlink.com 1.10,2013-03-29 09:35:00,
2013-03-29 02:50:00,42.4,42.0,30.16,SSW,211,0.0,0.0,98,0.00,,,0.00,weatherlink.com 1.10,2013-03-29 09:50:00,
2013-03-29 03:05:00,42.2,42.0,30.16,SW,221,0.0,1.0,98,0.00,,,0.00,weatherlink.com 1.10,2013-03-29 10:05:00,
2013-03-29 03:20:00,42.3,42.0,30.17,SW,214,0.0,1.0,98,0.00,,,0.00,weatherlink.com 1.10,2013-03-29 10:20:00,
2013-03-29 03:35:00,43.0,43.0,30.17,SW,214,0.0,0.0,98,0.00,,,0.00,weatherlink.com 1.10,2013-03-29 10:35:00,
2013-03-29 03:50:00,43.2,43.0,30.17,SW,214,0.0,0.0,98,0.01,,,0.01,weatherlink.com 1.10,2013-03-29 10:50:00,
2013-03-29 04:05:00,43.4,43.0,30.17,SW,214,0.0,0.0,98,0.01,,,0.01,weatherlink.com 1.10,2013-03-29 11:05:00,
2013-03-29 04:20:00,43.6,43.0,30.17,SW,214,0.0,0.0,98,0.01,,,0.01,weatherlink.com 1.10,2013-03-29 11:20:00,
2013-03-29 04:35:00,43.9,43.0,30.18,SW,214,0.0,0.0,98,0.00,,,0.01,weatherlink.com 1.10,2013-03-29 11:35:00,
2013-03-29 04:50:00,44.1,44.0,30.18,SW,214,0.0,0.0,98,0.00,,,0.01,weatherlink.com 1.10,2013-03-29 11:50:00,
2013-03-29 05:05:00,44.3,44.0,30.18,SW,214,0.0,0.0,98,0.00,,,0.01,weatherlink.com 1.10,2013-03-29 12:05:00,
2013-03-29 05:20:00,44.6,44.0,30.18,SW,214,0.0,1.0,98,0.00,,,0.01,weatherlink.com 1.10,2013-03-29 12:20:00,
2013-03-29 05:35:00,44.6,44.0,30.18,SW,214,0.0,0.0,98,0.00,,,0.01,weatherlink.com 1.10,2013-03-29 12:35:00,
2013-03-29 05:50:00,44.7,44.0,30.19,SW,226,0.0,0.0,98,0.00,,,0.01,weatherlink.com 1.10,2013-03-29 12:50:00,
2013-03-29 06:05:00,44.7,44.0,30.19,SW,226,0.0,0.0,98,0.00,,,0.01,weatherlink.com 1.10,2013-03-29 13:05:00,
2013-03-29 06:20:00,44.7,44.0,30.19,NNW,342,0.0,1.0,98,0.00,,,0.01,weatherlink.com 1.10,2013-03-29 13:20:00,
2013-03-29 06:35:00,44.7,44.0,30.20,NNW,343,0.0,0.0,98,0.00,,,0.01,weatherlink.com 1.10,2013-03-29 13:35:00,
2013-03-29 06:50:00,44.7,44.0,30.20,WSW,253,0.0,0.0,98,0.00,,,0.01,weatherlink.com 1.10,2013-03-29 13:50:00,
2013-03-29 07:05:00,44.8,44.0,30.21,West,278,0.0,0.0,98,0.00,,,0.01,weatherlink.com 1.10,2013-03-29 14:05:00,
2013-03-29 07:20:00,45.0,45.0,30.21,West,278,0.0,1.0,98,0.00,,,0.01,weatherlink.com 1.10,2013-03-29 14:20:00,
2013-03-29 07:35:00,45.2,45.0,30.22,NW,318,0.0,1.0,98,0.00,,,0.01,weatherlink.com 1.10,2013-03-29 14:35:00,
2013-03-29 07:50:00,45.3,45.0,30.22,NNW,340,0.0,1.0,98,0.00,,,0.01,weatherlink.com 1.10,2013-03-29 14:50:00,
2013-03-29 08:05:00,45.7,45.0,30.23,NNW,342,0.0,1.0,98,0.00,,,0.01,weatherlink.com 1.10,2013-03-29 15:05:00,
2013-03-29 08:20:00,46.2,46.0,30.23,North,349,0.0,1.0,98,0.01,,,0.02,weatherlink.com 1.10,2013-03-29 15:20:00,
2013-03-29 08:35:00,46.6,46.0,30.23,North,349,0.0,1.0,98,0.01,,,0.02,weatherlink.com 1.10,2013-03-29 15:35:00,
2013-03-29 08:50:00,47.5,47.0,30.23,NW,321,1.0,3.0,98,0.01,,,0.02,weatherlink.com 1.10,2013-03-29 15:50:00,
2013-03-29 09:05:00,47.7,47.0,30.23,NNE,26,2.0,3.0,97,0.01,,,0.02,weatherlink.com 1.10,2013-03-29 16:05:00,
2013-03-29 09:20:00,48.6,48.0,30.23,NNW,342,1.0,4.0,96,0.00,,,0.02,weatherlink.com 1.10,2013-03-29 16:20:00,
2013-03-29 09:35:00,49.3,48.0,30.23,North,350,2.0,4.0,94,0.00,,,0.02,weatherlink.com 1.10,2013-03-29 16:35:00,
2013-03-29 09:50:00,50.7,48.0,30.23,NW,308,2.0,4.0,90,0.00,,,0.02,weatherlink.com 1.10,2013-03-29 16:50:00,
2013-03-29 10:05:00,51.7,48.0,30.23,WNW,299,2.0,7.0,87,0.00,,,0.02,weatherlink.com 1.10,2013-03-29 17:05:00,
2013-03-29 10:20:00,52.6,48.0,30.23,NNW,330,0.0,4.0,85,0.00,,,0.02,weatherlink.com 1.10,2013-03-29 17:20:00,
2013-03-29 10:36:00,53.5,48.0,30.24,ENE,75,2.0,5.0,82,0.00,,,0.02,weatherlink.com 1.10,2013-03-29 17:36:00,
2013-03-29 10:51:00,54.3,49.0,30.24,NE,41,1.0,4.0,81,0.00,,,0.02,weatherlink.com 1.10,2013-03-29 17:51:00,
2013-03-29 11:06:00,55.2,48.0,30.24,NNE,30,4.0,4.0,77,0.00,,,0.02,weatherlink.com 1.10,2013-03-29 18:06:00,
2013-03-29 11:21:00,56.5,49.0,30.23,West,266,1.0,3.0,75,0.00,,,0.02,weatherlink.com 1.10,2013-03-29 18:21:00,
2013-03-29 11:36:00,56.9,48.0,30.23,NE,54,0.0,3.0,73,0.00,,,0.02,weatherlink.com 1.10,2013-03-29 18:36:00,
2013-03-29 11:51:00,56.9,48.0,30.23,NNE,13,0.0,5.0,73,0.00,,,0.02,weatherlink.com 1.10,2013-03-29 18:51:00,
2013-03-29 12:21:00,57.8,49.0,30.23,SSE,157,0.0,5.0,73,0.00,,,0.02,weatherlink.com 1.10,2013-03-29 19:21:00,
2013-03-29 12:36:00,59.1,50.0,30.23,ENE,74,1.0,4.0,71,0.00,,,0.02,weatherlink.com 1.10,2013-03-29 19:36:00,
2013-03-29 12:51:00,59.5,50.0,30.23,NNW,343,1.0,4.0,71,0.00,,,0.02,weatherlink.com 1.10,2013-03-29 19:51:00,
2013-03-29 13:06:00,59.8,50.0,30.23,ESE,112,0.0,4.0,70,0.00,,,0.02,weatherlink.com 1.10,2013-03-29 20:06:00,
2013-03-29 13:21:00,60.2,50.0,30.23,SE,142,3.0,7.0,68,0.00,,,0.02,weatherlink.com 1.10,2013-03-29 20:21:00,
2013-03-29 13:36:00,60.7,50.0,30.22,SE,125,4.0,6.0,67,0.00,,,0.02,weatherlink.com 1.10,2013-03-29 20:36:00,
2013-03-29 14:06:00,61.6,48.0,30.22,SW,214,2.0,6.0,62,0.00,,,0.02,weatherlink.com 1.10,2013-03-29 21:06:00,
2013-03-29 14:21:00,62.0,49.0,30.22,East,89,1.0,7.0,62,0.00,,,0.02,weatherlink.com 1.10,2013-03-29 21:21:00,
2013-03-29 14:36:00,61.5,48.0,30.21,NE,52,1.0,6.0,62,0.00,,,0.02,weatherlink.com 1.10,2013-03-29 21:36:00,
2013-03-29 14:51:00,61.3,48.0,30.21,ESE,108,3.0,5.0,61,0.00,,,0.02,weatherlink.com 1.10,2013-03-29 21:51:00,
2013-03-29 15:06:00,62.0,48.0,30.20,ESE,113,1.0,5.0,60,0.00,,,0.02,weatherlink.com 1.10,2013-03-29 22:06:00,
2013-03-29 15:21:00,62.9,48.0,30.20,ESE,103,1.0,3.0,59,0.00,,,0.02,weatherlink.com 1.10,2013-03-29 22:21:00,
2013-03-29 15:36:00,63.2,48.0,30.20,ENE,58,3.0,5.0,59,0.00,,,0.02,weatherlink.com 1.10,2013-03-29 22:36:00,
2013-03-29 15:51:00,62.7,48.0,30.19,ENE,72,1.0,6.0,59,0.00,,,0.02,weatherlink.com 1.10,2013-03-29 22:51:00,
2013-03-29 16:06:00,62.5,48.0,30.19,NNE,20,3.0,3.0,60,0.00,,,0.02,weatherlink.com 1.10,2013-03-29 23:06:00,
2013-03-29 16:21:00,63.1,49.0,30.19,NNE,23,2.0,5.0,60,0.00,,,0.02,weatherlink.com 1.10,2013-03-29 23:21:00,
2013-03-29 16:36:00,63.2,48.0,30.19,NE,36,1.0,6.0,57,0.00,,,0.02,weatherlink.com 1.10,2013-03-29 23:36:00,
2013-03-29 16:51:00,63.1,48.0,30.19,NE,45,4.0,6.0,58,0.00,,,0.02,weatherlink.com 1.10,2013-03-29 23:51:00,
2013-03-29 17:06:00,62.6,47.0,30.19,ENE,58,5.0,6.0,58,0.00,,,0.02,weatherlink.com 1.10,2013-03-30 00:06:00,
2013-03-29 17:21:00,62.5,48.0,30.19,NE,52,1.0,6.0,60,0.00,,,0.02,weatherlink.com 1.10,2013-03-30 00:21:00,
2013-03-29 17:36:00,61.9,48.0,30.19,NE,39,2.0,5.0,60,0.00,,,0.02,weatherlink.com 1.10,2013-03-30 00:36:00,
2013-03-29 18:06:00,60.9,46.0,30.19,NE,47,3.0,7.0,59,0.00,,,0.02,weatherlink.com 1.10,2013-03-30 01:06:00,
2013-03-29 18:21:00,60.5,45.0,30.19,NE,56,4.0,7.0,58,0.00,,,0.02,weatherlink.com 1.10,2013-03-30 01:21:00,
2013-03-29 18:36:00,60.4,46.0,30.19,NE,49,5.0,9.0,59,0.00,,,0.02,weatherlink.com 1.10,2013-03-30 01:36:00,
2013-03-29 18:52:00,59.8,46.0,30.19,NE,44,5.0,7.0,60,0.00,,,0.02,weatherlink.com 1.10,2013-03-30 01:52:00,
2013-03-29 19:06:00,59.0,46.0,30.19,NNE,18,0.0,5.0,63,0.00,,,0.02,weatherlink.com 1.10,2013-03-30 02:06:00,
2013-03-29 19:21:00,58.2,45.0,30.19,NW,319,2.0,4.0,62,0.00,,,0.02,weatherlink.com 1.10,2013-03-30 02:21:00,
2013-03-29 19:37:00,57.2,45.0,30.19,North,354,1.0,3.0,65,0.00,,,0.02,weatherlink.com 1.10,2013-03-30 02:37:00,
2013-03-29 19:51:00,56.2,46.0,30.20,NNW,338,1.0,5.0,68,0.00,,,0.02,weatherlink.com 1.10,2013-03-30 02:51:00,
2013-03-29 20:06:00,55.0,45.0,30.20,NW,325,0.0,3.0,70,0.00,,,0.02,weatherlink.com 1.10,2013-03-30 03:06:00,
2013-03-29 20:21:00,54.1,45.0,30.21,NW,325,0.0,0.0,72,0.00,,,0.02,weatherlink.com 1.10,2013-03-30 03:21:00,
2013-03-29 20:36:00,53.1,45.0,30.21,NW,325,0.0,0.0,74,0.00,,,0.02,weatherlink.com 1.10,2013-03-30 03:36:00,
2013-03-29 20:51:00,52.3,45.0,30.21,NW,325,0.0,1.0,77,0.00,,,0.02,weatherlink.com 1.10,2013-03-30 03:51:00,
2013-03-29 21:06:00,51.3,45.0,30.22,NW,325,0.0,0.0,78,0.00,,,0.02,weatherlink.com 1.10,2013-03-30 04:06:00,
2013-03-29 21:22:00,51.1,45.0,30.22,NW,325,0.0,0.0,80,0.00,,,0.02,weatherlink.com 1.10,2013-03-30 04:22:00,
2013-03-29 21:36:00,50.6,45.0,30.22,NNW,335,0.0,1.0,81,0.00,,,0.02,weatherlink.com 1.10,2013-03-30 04:36:00,
2013-03-29 21:51:00,49.1,45.0,30.23,NNW,335,0.0,0.0,84,0.00,,,0.02,weatherlink.com 1.10,2013-03-30 04:51:00,
2013-03-29 22:07:00,48.7,44.0,30.23,NNW,336,0.0,0.0,84,0.00,,,0.02,weatherlink.com 1.10,2013-03-30 05:07:00,
2013-03-29 22:21:00,47.8,44.0,30.23,NNW,336,0.0,0.0,86,0.00,,,0.02,weatherlink.com 1.10,2013-03-30 05:21:00,
2013-03-29 22:36:00,46.5,44.0,30.23,NNW,336,0.0,0.0,89,0.00,,,0.02,weatherlink.com 1.10,2013-03-30 05:36:00,
2013-03-29 22:51:00,46.9,44.0,30.23,NNW,336,0.0,0.0,89,0.00,,,0.02,weatherlink.com 1.10,2013-03-30 05:51:00,
2013-03-29 23:06:00,45.8,43.0,30.23,NNW,336,0.0,0.0,90,0.00,,,0.02,weatherlink.com 1.10,2013-03-30 06:06:00,
2013-03-29 23:22:00,45.2,43.0,30.23,NNW,335,0.0,0.0,91,0.00,,,0.02,weatherlink.com 1.10,2013-03-30 06:22:00,
2013-03-29 23:37:00,45.2,43.0,30.23,NNW,336,0.0,0.0,93,0.00,,,0.02,weatherlink.com 1.10,2013-03-30 06:37:00,
2013-03-29 23:52:00,44.3,42.0,30.23,NNW,335,0.0,0.0,93,0.00,,,0.02,weatherlink.com 1.10,2013-03-30 06:52:00,